Voltar ao catálogo

ATLAS 2AS CENTAUR R/B

AtivoLEO
NORAD 26906·ROCKET BODY·🇺🇸 United States

Lançado Sep 8, 2001 de Vandenberg Space Force Base

Loading…

Próximas Passagens (próximas 24 horas)

TLE

AtualizadoSource: Space-Track

Época: Sep 14, 2026, 12:18 UTC

1 26906U 01040B   26257.51295032  .00000121  00000-0  11024-3 0  9992
2 26906  63.4176 286.1857 0635180 342.1685  15.7929 13.45247532115423

Acompanhe ATLAS 2AS CENTAUR R/B em tempo real com AllMySat

Download on the App Store